Change the Weather History Date:

Monday, October 10, 2011

  Actual Average Record
Temperature  
Mean Temperature 63 °F -  
Max Temperature 69 °F 59 °F 82 °F (2013)
Min Temperature 57 °F 36 °F 24 °F (2012)
Degree Days  
Heating Degree Days 2    
Growing Degree Days 13 (Base 50)    
Moisture  
Dew Point 51 °F    
Average Humidity 69    
Maximum Humidity 94    
Minimum Humidity 46    
Precipitation  
Precipitation 0.07 in - - ()
Sea Level Pressure  
Sea Level Pressure 29.91 in    
Wind  
Wind Speed 10 mph (South)    
Max Wind Speed 16 mph    
Max Gust Speed 22 mph    
Visibility 10 miles    
Events Rain    
Averages and records for this station are not official NWS values.
T = Trace of Precipitation, MM = Missing Value Source: NWS Daily Summary

Daily Weather History Graph

Daily Weather History Graph

Search for Another Location

Airport or City:

Trip Planner

Search our weather history database for the weather conditions in past years. The results will help you decide how hot, cold, wet, or windy it might be!

Date:

Astronomy

Oct. 10, 2011 Rise Set
Actual Time 7:33 AM CDT 6:48 PM CDT
Civil Twilight 7:03 AM CDT 7:17 PM CDT
Nautical Twilight 6:29 AM CDT 7:51 PM CDT
Astronomical Twilight 5:55 AM CDT 8:25 PM CDT
Moon 5:52 PM CDT (10/10) 6:14 AM CDT (10/10)
Length of Visible Light 12h 13m
Length of Day
11h 14m
Waxing Gibbous, 98% of the Moon is Illuminated
Oct 10
Waxing Gibbous
Oct 11
Full
Oct 19
Last Quarter
Oct 26
New
Nov 2
First Quarter

Hourly Weather History & Observations

Time (CDT) Temp. Dew Point Humidity Pressure Visibility Wind Dir Wind Speed Gust Speed Precip Events Conditions
12:14 AM 66.2 °F 48.2 °F 52% 30.01 in 10.0 mi SE 10.4 mph 17.3 mph N/A   Clear
12:34 AM 66.2 °F 48.2 °F 52% 30.00 in 10.0 mi SSE 10.4 mph 18.4 mph N/A   Clear
12:54 AM 66.2 °F 48.2 °F 52% 29.99 in 10.0 mi SSE 12.7 mph 18.4 mph N/A   Clear
1:14 AM 64.4 °F 48.2 °F 56% 29.99 in 10.0 mi SSE 10.4 mph - N/A   Clear
1:34 AM 64.4 °F 48.2 °F 56% 29.98 in 10.0 mi SE 12.7 mph 21.9 mph N/A   Clear
2:15 AM 62.6 °F 48.2 °F 59% 29.99 in 10.0 mi SSE 9.2 mph - N/A   Clear
2:54 AM 62.6 °F 50.0 °F 63% 29.98 in 10.0 mi SE 9.2 mph - N/A   Clear
3:14 AM 60.8 °F 50.0 °F 68% 29.98 in 10.0 mi SSE 9.2 mph - N/A   Clear
3:34 AM 60.8 °F 50.0 °F 68% 29.98 in 10.0 mi SSE 9.2 mph - N/A   Clear
3:55 AM 60.8 °F 50.0 °F 68% 29.97 in 10.0 mi SSE 9.2 mph - N/A   Clear
4:14 AM 60.8 °F 50.0 °F 68% 29.97 in 10.0 mi SSE 9.2 mph - N/A   Clear
4:54 AM 60.8 °F 50.0 °F 68% 29.96 in 10.0 mi SE 9.2 mph - N/A   Clear
5:14 AM 59.0 °F 50.0 °F 72% 29.95 in 10.0 mi SE 8.1 mph - N/A   Clear
5:34 AM 57.2 °F 50.0 °F 77% 29.95 in 10.0 mi SE 8.1 mph - N/A   Clear
5:54 AM 57.2 °F 50.0 °F 77% 29.95 in 10.0 mi SE 8.1 mph - N/A   Clear
6:34 AM 57.2 °F 50.0 °F 77% 29.95 in 10.0 mi SE 8.1 mph - N/A   Clear
6:54 AM 57.2 °F 50.0 °F 77% 29.94 in 10.0 mi SE 6.9 mph - N/A   Clear
7:14 AM 57.2 °F 51.8 °F 82% 29.95 in 10.0 mi SSE 8.1 mph - N/A   Scattered Clouds
7:35 AM 59.0 °F 51.8 °F 77% 29.95 in 10.0 mi SSE 9.2 mph - N/A   Mostly Cloudy
8:15 AM 59.0 °F 51.8 °F 77% 29.95 in 10.0 mi SSE 9.2 mph - N/A   Mostly Cloudy
8:35 AM 59.0 °F 51.8 °F 77% 29.94 in 10.0 mi SSE 8.1 mph - N/A   Scattered Clouds
8:55 AM 57.2 °F 53.6 °F 88% 29.94 in 10.0 mi SSE 8.1 mph - N/A Rain Light Rain
9:14 AM 57.2 °F 53.6 °F 88% 29.95 in 10.0 mi South 8.1 mph - N/A Rain Rain
9:34 AM 57.2 °F 53.6 °F 88% 29.95 in 10.0 mi SSE 8.1 mph - N/A Rain Light Rain
9:54 AM 57.2 °F 55.4 °F 94% 29.95 in 10.0 mi SSE 9.2 mph - N/A Rain Light Rain
10:35 AM 59.0 °F 55.4 °F 88% 29.95 in 7.0 mi SSE 10.4 mph - 0.01 in Rain Light Rain
10:54 AM 59.0 °F 55.4 °F 88% 29.95 in 7.0 mi South 10.4 mph - 0.01 in Rain Light Rain
11:16 AM 59.0 °F 57.2 °F 94% 29.94 in 7.0 mi South 8.1 mph - 0.02 in Rain Rain
11:35 AM 59.0 °F 57.2 °F 94% 29.94 in 10.0 mi South 9.2 mph - 0.04 in Rain Rain
11:55 AM 59.0 °F 57.2 °F 94% 29.94 in 10.0 mi South 9.2 mph - 0.05 in Rain Rain
12:14 PM 59.0 °F 57.2 °F 94% 29.93 in 10.0 mi South 8.1 mph - 0.01 in Rain Light Rain
12:35 PM 60.8 °F 57.2 °F 88% 29.93 in 10.0 mi SSE 9.2 mph - 0.01 in   Overcast
12:55 PM 60.8 °F 57.2 °F 88% 29.92 in 10.0 mi SSE 10.4 mph - 0.01 in   Mostly Cloudy
1:14 PM 62.6 °F 57.2 °F 82% 29.91 in 10.0 mi South 11.5 mph 16.1 mph N/A   Mostly Cloudy
1:34 PM 64.4 °F 55.4 °F 73% 29.90 in 10.0 mi South 16.1 mph 19.6 mph N/A   Mostly Cloudy
1:54 PM 64.4 °F 55.4 °F 73% 29.89 in 10.0 mi South 13.8 mph 19.6 mph N/A   Scattered Clouds
2:15 PM 64.4 °F 55.4 °F 73% 29.88 in 10.0 mi South 13.8 mph 17.3 mph N/A   Scattered Clouds
2:35 PM 66.2 °F 53.6 °F 64% 29.87 in 10.0 mi South 11.5 mph 18.4 mph N/A   Overcast
2:55 PM 66.2 °F 51.8 °F 60% 29.86 in 10.0 mi SSW 11.5 mph 16.1 mph N/A   Mostly Cloudy
3:14 PM 66.2 °F 50.0 °F 56% 29.86 in 10.0 mi South 11.5 mph 18.4 mph N/A   Mostly Cloudy
3:34 PM 68.0 °F 48.2 °F 49% 29.85 in 10.0 mi South 10.4 mph 20.7 mph N/A   Scattered Clouds
4:14 PM 69.8 °F 48.2 °F 46% 29.85 in 10.0 mi SSW 10.4 mph - N/A   Scattered Clouds
4:34 PM 69.8 °F 48.2 °F 46% 29.85 in 10.0 mi SW 12.7 mph 21.9 mph N/A   Clear
4:55 PM 69.8 °F 48.2 °F 46% 29.84 in 10.0 mi SSW 15.0 mph 19.6 mph N/A   Clear
5:15 PM 68.0 °F 46.4 °F 46% 29.84 in 10.0 mi SSW 13.8 mph 17.3 mph N/A   Clear
5:34 PM 68.0 °F 46.4 °F 46% 29.84 in 10.0 mi SSW 9.2 mph - N/A   Clear
5:55 PM 66.2 °F 46.4 °F 49% 29.84 in 10.0 mi SSW 10.4 mph - N/A   Clear
6:14 PM 66.2 °F 46.4 °F 49% 29.83 in 10.0 mi SSW 6.9 mph - N/A   Clear
6:34 PM 64.4 °F 46.4 °F 52% 29.83 in 10.0 mi SW 5.8 mph - N/A   Clear
6:54 PM 62.6 °F 48.2 °F 59% 29.84 in 10.0 mi SSW 3.5 mph - N/A   Clear
7:15 PM 60.8 °F 48.2 °F 63% 29.84 in 10.0 mi SSW 5.8 mph - N/A   Clear
7:35 PM 60.8 °F 48.2 °F 63% 29.85 in 10.0 mi SSW 5.8 mph - N/A   Clear
7:54 PM 60.8 °F 48.2 °F 63% 29.85 in 10.0 mi South 3.5 mph - N/A   Clear
8:34 PM 57.2 °F 48.2 °F 72% 29.85 in 10.0 mi SSE 4.6 mph - N/A   Clear
8:55 PM 57.2 °F 48.2 °F 72% 29.84 in 10.0 mi SE 4.6 mph - N/A   Clear
9:14 PM 57.2 °F 48.2 °F 72% 29.84 in 10.0 mi SE 5.8 mph - N/A   Clear
9:34 PM 57.2 °F 48.2 °F 72% 29.84 in 10.0 mi SE 5.8 mph - N/A   Clear
9:55 PM 57.2 °F 46.4 °F 67% 29.84 in 10.0 mi SE 8.1 mph - N/A   Clear
10:15 PM 57.2 °F 46.4 °F 67% 29.83 in 10.0 mi SSE 9.2 mph - N/A   Clear
10:35 PM 55.4 °F 46.4 °F 72% 29.83 in 10.0 mi SSE 9.2 mph - N/A   Clear
10:54 PM 55.4 °F 46.4 °F 72% 29.83 in 10.0 mi SSE 9.2 mph - N/A   Clear
11:15 PM 57.2 °F 46.4 °F 67% 29.83 in 10.0 mi South 9.2 mph - N/A   Clear
11:34 PM 57.2 °F 46.4 °F 67% 29.82 in 10.0 mi South 10.4 mph 16.1 mph N/A   Clear
11:54 PM 57.2 °F 46.4 °F 67% 29.82 in 10.0 mi South 10.4 mph - N/A   Clear